Location: Vancouver
(49.2500°N, 123.1330°W)
Time: 16:48:30
(UTC-07:00)

BREEZE-M DEB (TANK) - Visible Passes

Search period start: 29 September 2016 00:00
Search period end: 09 October 2016 00:00
Orbit: 285 x 13314 km, 49.6° (Epoch: 28 September)

Date Brightness Start Highest point End Pass type
(mag) Time Alt. Az. Time Alt. Az. Time Alt. Az.
29 Sep 5.9 20:35:15 10° WNW 20:55:44 31° WSW 21:02:12 10° S visible
30 Sep 6.5 21:54:19 10° WNW 22:00:35 13° W 22:04:37 10° WSW visible
02 Oct 5.9 19:30:42 10° WNW 19:59:55 44° WSW 20:07:08 10° S visible
03 Oct 9.4 06:45:03 10° ESE 07:28:12 17° E 07:57:17 10° ENE visible
03 Oct 6.3 20:49:57 10° WNW 21:05:26 22° W 21:11:45 10° SSW visible
06 Oct 9.9 06:18:36 10° E 06:31:50 11° ENE 06:43:26 10° ENE visible
06 Oct 6.1 19:45:22 10° WNW 20:09:46 33° WSW 20:17:02 10° S visible
07 Oct 9.2 06:32:56 10° ESE 07:35:57 24° E 08:13:59 10° ENE visible
07 Oct 6.8 21:05:08 10° WNW 21:14:20 15° W 21:19:35 10° WSW visible
